QFA115 YBBN-YBHM

Flight info

Callsign QFA115
Flight time N/A
Altitude 20000
Route BN V308 MK B462 OVRON
Aircraft DH8D/M-SDE2E3FGRY/H

Departure

Time N/A
Airport Brisbane International Airport (YBBN)

Arrival

Time 2026-05-03 21:33
Airport Hamilton Island Airport (YBHM)
Time Latitude Longitude Altitude Speed Heading
2026-05-03 20:15 -25.01052 151.77394 20104 ft 334 kts 321°
2026-05-03 20:15 -24.99204 151.75886 20099 ft 334 kts 321°
2026-05-03 20:15 -24.97338 151.74365 20098 ft 334 kts 320°
2026-05-03 20:15 -24.95446 151.72823 20098 ft 333 kts 321°
2026-05-03 20:16 -24.93596 151.71315 20102 ft 334 kts 320°
2026-05-03 20:16 -24.91723 151.69789 20106 ft 335 kts 321°
2026-05-03 20:16 -24.89837 151.68253 20102 ft 335 kts 321°
2026-05-03 20:16 -24.87980 151.66739 20100 ft 335 kts 321°
2026-05-03 20:17 -24.86084 151.65196 20100 ft 335 kts 321°
2026-05-03 20:17 -24.84227 151.63686 20099 ft 334 kts 321°
2026-05-03 20:17 -24.82348 151.62157 20105 ft 334 kts 321°
2026-05-03 20:17 -24.80480 151.60638 20105 ft 334 kts 321°
2026-05-03 20:18 -24.78602 151.59111 20107 ft 334 kts 321°
2026-05-03 20:18 -24.76749 151.57605 20109 ft 333 kts 321°
2026-05-03 20:18 -24.74876 151.56085 20104 ft 333 kts 321°
2026-05-03 20:18 -24.73011 151.54570 20100 ft 333 kts 321°
2026-05-03 20:19 -24.71148 151.53058 20096 ft 333 kts 321°
2026-05-03 20:19 -24.69273 151.51538 20101 ft 333 kts 321°
2026-05-03 20:19 -24.67403 151.50021 20105 ft 333 kts 321°
2026-05-03 20:19 -24.65553 151.48521 20105 ft 334 kts 321°
2026-05-03 20:20 -24.63667 151.46992 20108 ft 334 kts 321°
2026-05-03 20:20 -24.61807 151.45487 20104 ft 333 kts 321°
2026-05-03 20:20 -24.59955 151.43986 20104 ft 333 kts 321°
2026-05-03 20:20 -24.58092 151.42479 20107 ft 333 kts 321°
2026-05-03 20:21 -24.56218 151.40962 20111 ft 332 kts 321°
2026-05-03 20:21 -24.54345 151.39447 20111 ft 332 kts 321°
2026-05-03 20:21 -24.52474 151.37935 20113 ft 333 kts 321°
2026-05-03 20:21 -24.50611 151.36429 20111 ft 333 kts 321°
2026-05-03 20:22 -24.48751 151.34926 20110 ft 333 kts 321°
2026-05-03 20:22 -24.46872 151.33409 20108 ft 333 kts 321°
2026-05-03 20:22 -24.45011 151.31906 20114 ft 333 kts 321°
2026-05-03 20:22 -24.43149 151.30403 20118 ft 332 kts 321°
2026-05-03 20:23 -24.41300 151.28912 20113 ft 332 kts 321°
2026-05-03 20:23 -24.39434 151.27408 20111 ft 332 kts 321°
2026-05-03 20:23 -24.37564 151.25900 20106 ft 332 kts 321°
2026-05-03 20:23 -24.35716 151.24411 20104 ft 332 kts 321°
2026-05-03 20:24 -24.33847 151.22906 20106 ft 331 kts 321°
2026-05-03 20:24 -24.31985 151.21407 20107 ft 331 kts 321°
2026-05-03 20:24 -24.30135 151.19917 20109 ft 331 kts 321°
2026-05-03 20:24 -24.28262 151.18411 20105 ft 332 kts 321°
2026-05-03 20:25 -24.26403 151.16916 20101 ft 332 kts 321°
2026-05-03 20:25 -24.24551 151.15427 20100 ft 331 kts 321°
2026-05-03 20:25 -24.22694 151.13934 20096 ft 331 kts 321°
2026-05-03 20:25 -24.20819 151.12428 20096 ft 331 kts 321°
2026-05-03 20:26 -24.18973 151.10945 20100 ft 331 kts 321°
2026-05-03 20:26 -24.17098 151.09441 20102 ft 331 kts 321°
2026-05-03 20:26 -24.15238 151.07947 20107 ft 331 kts 321°
2026-05-03 20:26 -24.13393 151.06468 20100 ft 331 kts 321°
2026-05-03 20:27 -24.11521 151.04967 20096 ft 332 kts 321°
2026-05-03 20:27 -24.09683 151.03493 20099 ft 331 kts 321°
2026-05-03 20:27 -24.07821 151.02000 20096 ft 331 kts 321°
2026-05-03 20:27 -24.05941 151.00494 20091 ft 331 kts 321°
2026-05-03 20:28 -24.04091 150.99019 20093 ft 331 kts 321°
2026-05-03 20:28 -24.02209 150.97523 20096 ft 332 kts 321°
2026-05-03 20:28 -24.00355 150.96050 20094 ft 332 kts 321°
2026-05-03 20:28 -23.98476 150.94557 20097 ft 333 kts 321°
2026-05-03 20:29 -23.96611 150.93077 20093 ft 331 kts 321°
2026-05-03 20:29 -23.94735 150.91588 20095 ft 332 kts 321°
2026-05-03 20:29 -23.92844 150.90086 20095 ft 332 kts 321°
2026-05-03 20:29 -23.90979 150.88606 20093 ft 333 kts 321°
2026-05-03 20:30 -23.89107 150.87122 20094 ft 333 kts 321°
2026-05-03 20:30 -23.87246 150.85646 20086 ft 333 kts 321°
2026-05-03 20:30 -23.85352 150.84145 20085 ft 333 kts 321°
2026-05-03 20:30 -23.83477 150.82660 20092 ft 333 kts 321°
2026-05-03 20:31 -23.81606 150.81178 20094 ft 333 kts 321°
2026-05-03 20:31 -23.79705 150.79672 20089 ft 334 kts 321°
2026-05-03 20:31 -23.77835 150.78192 20088 ft 334 kts 321°
2026-05-03 20:31 -23.75963 150.76712 20077 ft 334 kts 321°
2026-05-03 20:32 -23.74066 150.75212 20080 ft 333 kts 322°
2026-05-03 20:32 -23.72192 150.73730 20081 ft 333 kts 321°
2026-05-03 20:32 -23.70328 150.72257 20087 ft 333 kts 322°
2026-05-03 20:32 -23.68441 150.70767 20085 ft 333 kts 322°
2026-05-03 20:33 -23.66548 150.69270 20081 ft 333 kts 322°
2026-05-03 20:33 -23.64686 150.67801 20080 ft 333 kts 321°
2026-05-03 20:33 -23.62801 150.66313 20080 ft 332 kts 321°
2026-05-03 20:33 -23.60919 150.64830 20084 ft 331 kts 321°
2026-05-03 20:34 -23.59063 150.63367 20081 ft 332 kts 322°
2026-05-03 20:34 -23.57181 150.61883 20083 ft 332 kts 321°
2026-05-03 20:34 -23.55324 150.60420 20085 ft 331 kts 322°
2026-05-03 20:34 -23.53450 150.58943 20084 ft 331 kts 322°
2026-05-03 20:35 -23.51573 150.57466 20079 ft 331 kts 322°
2026-05-03 20:35 -23.49720 150.56007 20077 ft 331 kts 322°
2026-05-03 20:35 -23.47854 150.54540 20071 ft 331 kts 322°
2026-05-03 20:35 -23.45983 150.53067 20073 ft 331 kts 322°
2026-05-03 20:36 -23.44110 150.51596 20074 ft 331 kts 322°
2026-05-03 20:36 -23.42247 150.50131 20075 ft 331 kts 322°
2026-05-03 20:36 -23.40366 150.48653 20078 ft 331 kts 322°
2026-05-03 20:36 -23.38486 150.47234 20061 ft 332 kts 326°
2026-05-03 20:37 -23.36344 150.46227 20092 ft 333 kts 336°
2026-05-03 20:37 -23.34144 150.45393 20086 ft 333 kts 337°
2026-05-03 20:37 -23.31973 150.44575 20076 ft 334 kts 337°
2026-05-03 20:37 -23.29771 150.43745 20070 ft 334 kts 337°
2026-05-03 20:38 -23.27564 150.42911 20067 ft 333 kts 337°
2026-05-03 20:38 -23.25388 150.42087 20071 ft 333 kts 337°
2026-05-03 20:38 -23.23174 150.41246 20073 ft 333 kts 337°
2026-05-03 20:38 -23.20972 150.40408 20072 ft 333 kts 337°
2026-05-03 20:39 -23.18794 150.39580 20067 ft 334 kts 337°
2026-05-03 20:39 -23.16581 150.38737 20070 ft 335 kts 337°
2026-05-03 20:39 -23.14398 150.37906 20064 ft 334 kts 337°
2026-05-03 20:39 -23.12178 150.37061 20073 ft 334 kts 337°
2026-05-03 20:40 -23.09988 150.36227 20068 ft 334 kts 337°
2026-05-03 20:40 -23.07784 150.35388 20067 ft 335 kts 337°
2026-05-03 20:40 -23.05587 150.34551 20080 ft 335 kts 337°
2026-05-03 20:40 -23.03365 150.33705 20077 ft 335 kts 337°
2026-05-03 20:41 -23.01175 150.32872 20073 ft 335 kts 337°
2026-05-03 20:41 -22.98962 150.32030 20070 ft 335 kts 337°
2026-05-03 20:41 -22.96759 150.31192 20064 ft 335 kts 338°
2026-05-03 20:41 -22.94558 150.30354 20072 ft 335 kts 337°
2026-05-03 20:42 -22.92361 150.29520 20072 ft 335 kts 338°
2026-05-03 20:42 -22.90156 150.28682 20073 ft 336 kts 337°
2026-05-03 20:42 -22.87938 150.27840 20072 ft 336 kts 338°
2026-05-03 20:42 -22.85733 150.27002 20064 ft 335 kts 338°
2026-05-03 20:43 -22.83520 150.26163 20071 ft 336 kts 338°
2026-05-03 20:43 -22.81304 150.25320 20073 ft 336 kts 338°
2026-05-03 20:43 -22.79085 150.24480 20077 ft 336 kts 338°
2026-05-03 20:43 -22.76873 150.23640 20074 ft 336 kts 338°
2026-05-03 20:44 -22.74676 150.22807 20066 ft 336 kts 338°
2026-05-03 20:44 -22.72458 150.21967 20066 ft 336 kts 338°
2026-05-03 20:44 -22.70263 150.21137 20061 ft 336 kts 337°
2026-05-03 20:44 -22.68035 150.20293 20067 ft 336 kts 337°
2026-05-03 20:45 -22.65840 150.19461 20062 ft 336 kts 337°
2026-05-03 20:45 -22.63622 150.18622 20066 ft 336 kts 337°
2026-05-03 20:45 -22.61396 150.17780 20068 ft 336 kts 337°
2026-05-03 20:45 -22.59195 150.16948 20067 ft 336 kts 338°
2026-05-03 20:46 -22.56962 150.16104 20063 ft 337 kts 338°
2026-05-03 20:46 -22.54768 150.15274 20065 ft 335 kts 338°
2026-05-03 20:46 -22.52542 150.14433 20063 ft 335 kts 338°
2026-05-03 20:46 -22.50350 150.13606 20067 ft 334 kts 338°
2026-05-03 20:47 -22.48137 150.12772 20072 ft 334 kts 338°
2026-05-03 20:47 -22.45963 150.11951 20062 ft 334 kts 338°
2026-05-03 20:47 -22.43742 150.11113 20055 ft 334 kts 338°
2026-05-03 20:47 -22.41551 150.10288 20054 ft 335 kts 338°
2026-05-03 20:48 -22.39325 150.09448 20052 ft 336 kts 338°
2026-05-03 20:48 -22.37122 150.08618 20063 ft 336 kts 338°
2026-05-03 20:48 -22.34901 150.07781 20060 ft 335 kts 338°
2026-05-03 20:48 -22.32724 150.06961 20054 ft 334 kts 338°
2026-05-03 20:49 -22.30516 150.06130 20056 ft 335 kts 338°
2026-05-03 20:49 -22.28289 150.05292 20058 ft 335 kts 338°
2026-05-03 20:49 -22.26083 150.04462 20055 ft 335 kts 338°
2026-05-03 20:49 -22.23884 150.03635 20050 ft 336 kts 338°
2026-05-03 20:50 -22.21680 150.02806 20055 ft 335 kts 338°
2026-05-03 20:50 -22.19459 150.01971 20050 ft 335 kts 338°
2026-05-03 20:50 -22.17257 150.01144 20055 ft 335 kts 338°
2026-05-03 20:50 -22.15064 150.00320 20045 ft 335 kts 338°
2026-05-03 20:51 -22.12836 149.99484 20054 ft 336 kts 338°
2026-05-03 20:51 -22.10648 149.98662 20056 ft 334 kts 338°
2026-05-03 20:51 -22.08430 149.97830 20049 ft 334 kts 338°
2026-05-03 20:51 -22.06242 149.97009 20045 ft 335 kts 338°
2026-05-03 20:52 -22.04021 149.96178 20039 ft 335 kts 338°
2026-05-03 20:52 -22.01842 149.95348 20048 ft 334 kts 336°
2026-05-03 20:52 -21.99857 149.94080 20061 ft 330 kts 320°
2026-05-03 20:52 -21.98096 149.92468 20044 ft 330 kts 317°
2026-05-03 20:53 -21.96358 149.90852 20043 ft 330 kts 317°
2026-05-03 20:53 -21.94620 149.89235 20047 ft 329 kts 317°
2026-05-03 20:53 -21.92882 149.87622 20055 ft 329 kts 317°
2026-05-03 20:53 -21.91159 149.86026 20051 ft 329 kts 317°
2026-05-03 20:54 -21.89418 149.84416 20053 ft 328 kts 318°
2026-05-03 20:54 -21.85938 149.81204 20050 ft 328 kts 318°
2026-05-03 20:54 -21.84215 149.79616 20046 ft 328 kts 318°
2026-05-03 20:55 -21.82483 149.78021 20048 ft 327 kts 318°
2026-05-03 20:55 -21.80749 149.76425 20050 ft 326 kts 318°
2026-05-03 20:55 -21.79022 149.74837 20051 ft 325 kts 318°
2026-05-03 20:55 -21.77314 149.73267 20052 ft 325 kts 318°
2026-05-03 20:56 -21.75610 149.71699 20046 ft 324 kts 318°
2026-05-03 20:56 -21.73874 149.70106 20048 ft 324 kts 318°
2026-05-03 20:56 -21.72162 149.68535 20051 ft 324 kts 318°
2026-05-03 20:56 -21.70448 149.66962 20049 ft 323 kts 318°
2026-05-03 20:57 -21.68743 149.65396 20048 ft 324 kts 318°
2026-05-03 20:57 -21.67043 149.63837 20052 ft 323 kts 318°
2026-05-03 20:57 -21.65317 149.62254 20049 ft 322 kts 318°
2026-05-03 20:57 -21.63610 149.60690 20049 ft 322 kts 318°
2026-05-03 20:58 -21.61902 149.59126 20056 ft 322 kts 318°
2026-05-03 20:58 -21.60213 149.57585 20056 ft 321 kts 318°
2026-05-03 20:58 -21.58501 149.56024 20052 ft 322 kts 318°
2026-05-03 20:58 -21.56794 149.54468 20052 ft 322 kts 318°
2026-05-03 20:59 -21.55082 149.52907 20046 ft 322 kts 318°
2026-05-03 20:59 -21.53385 149.51361 20053 ft 322 kts 318°
2026-05-03 20:59 -21.51677 149.49805 20056 ft 322 kts 318°
2026-05-03 20:59 -21.49960 149.48241 20053 ft 321 kts 318°
2026-05-03 21:00 -21.48248 149.46681 20053 ft 321 kts 318°
2026-05-03 21:00 -21.47124 149.45659 20053 ft 322 kts 318°
2026-05-03 21:00 -21.44831 149.43571 20051 ft 322 kts 318°
2026-05-03 21:00 -21.43126 149.42020 20055 ft 321 kts 318°
2026-05-03 21:01 -21.41421 149.40469 20057 ft 321 kts 318°
2026-05-03 21:01 -21.39703 149.38908 20053 ft 321 kts 318°
2026-05-03 21:01 -21.38006 149.37366 20051 ft 321 kts 318°
2026-05-03 21:01 -21.36292 149.35808 20048 ft 321 kts 318°
2026-05-03 21:02 -21.34584 149.34256 20046 ft 322 kts 319°
2026-05-03 21:02 -21.32876 149.32706 20047 ft 322 kts 318°
2026-05-03 21:02 -21.31156 149.31143 20050 ft 322 kts 319°
2026-05-03 21:02 -21.29429 149.29578 20051 ft 323 kts 318°
2026-05-03 21:03 -21.27721 149.28027 20052 ft 323 kts 319°
2026-05-03 21:03 -21.25988 149.26456 20057 ft 323 kts 318°
2026-05-03 21:03 -21.24285 149.24911 20057 ft 323 kts 319°
2026-05-03 21:03 -21.22542 149.23332 20059 ft 324 kts 319°
2026-05-03 21:04 -21.20831 149.21782 20067 ft 325 kts 319°
2026-05-03 21:04 -21.19096 149.20210 20066 ft 325 kts 319°
2026-05-03 21:04 -21.17287 149.18761 20041 ft 327 kts 329°
2026-05-03 21:04 -21.15132 149.17958 20094 ft 327 kts 342°
2026-05-03 21:05 -21.12940 149.17339 20084 ft 327 kts 342°
2026-05-03 21:05 -21.10731 149.16721 20074 ft 327 kts 342°
2026-05-03 21:05 -21.08515 149.16103 20072 ft 327 kts 342°
2026-05-03 21:05 -21.06302 149.15483 20066 ft 327 kts 342°
2026-05-03 21:06 -21.04069 149.14857 20065 ft 328 kts 342°
2026-05-03 21:06 -21.01872 149.14239 20058 ft 328 kts 342°
2026-05-03 21:06 -20.99648 149.13614 20058 ft 328 kts 342°
2026-05-03 21:06 -20.97432 149.12991 20063 ft 328 kts 342°
2026-05-03 21:07 -20.95213 149.12366 20069 ft 329 kts 342°
2026-05-03 21:07 -20.93021 149.11748 20064 ft 329 kts 342°
2026-05-03 21:07 -20.90800 149.11122 20068 ft 329 kts 342°
2026-05-03 21:07 -20.88567 149.10494 20064 ft 329 kts 342°
2026-05-03 21:08 -20.86362 149.09872 20057 ft 329 kts 342°
2026-05-03 21:08 -20.84117 149.09239 20065 ft 329 kts 342°
2026-05-03 21:08 -20.81912 149.08618 20062 ft 330 kts 342°
2026-05-03 21:08 -20.79667 149.07987 20062 ft 330 kts 342°
2026-05-03 21:09 -20.77465 149.07365 20065 ft 330 kts 342°
2026-05-03 21:09 -20.75240 149.06740 20063 ft 330 kts 342°
2026-05-03 21:09 -20.72995 149.06108 20061 ft 330 kts 342°
2026-05-03 21:09 -20.70779 149.05484 20063 ft 331 kts 342°
2026-05-03 21:10 -20.68557 149.04860 20043 ft 330 kts 342°
2026-05-03 21:10 -20.66317 149.04230 20033 ft 329 kts 342°
2026-05-03 21:10 -20.64088 149.03604 20034 ft 330 kts 342°
2026-05-03 21:10 -20.61878 149.02983 20036 ft 328 kts 342°
2026-05-03 21:11 -20.59656 149.02359 20036 ft 328 kts 342°
2026-05-03 21:11 -20.57447 149.01738 20028 ft 328 kts 342°
2026-05-03 21:11 -20.55228 149.01115 20024 ft 329 kts 342°
2026-05-03 21:11 -20.52994 149.00488 20028 ft 329 kts 342°
2026-05-03 21:12 -20.50799 148.99872 20030 ft 330 kts 342°
2026-05-03 21:12 -20.48566 148.99246 20025 ft 330 kts 342°
2026-05-03 21:12 -20.46338 148.98621 20023 ft 331 kts 342°
2026-05-03 21:12 -20.44093 148.97992 20025 ft 331 kts 342°
2026-05-03 21:13 -20.41850 148.97363 20028 ft 331 kts 342°
2026-05-03 21:13 -20.39635 148.96742 20022 ft 330 kts 342°
2026-05-03 21:13 -20.37395 148.96115 20022 ft 329 kts 342°
2026-05-03 21:13 -20.35172 148.95493 20022 ft 329 kts 342°
2026-05-03 21:14 -20.32934 148.94934 20024 ft 330 kts 345°
2026-05-03 21:14 -20.30691 148.94453 20022 ft 330 kts 346°
2026-05-03 21:14 -20.28424 148.93970 20021 ft 329 kts 346°
2026-05-03 21:14 -20.26157 148.93483 20024 ft 329 kts 346°
2026-05-03 21:15 -20.23924 148.93002 20021 ft 328 kts 346°
2026-05-03 21:15 -20.21690 148.92467 20013 ft 328 kts 340°
2026-05-03 21:15 -20.19778 148.91194 20022 ft 324 kts 313°
2026-05-03 21:15 -20.18737 148.89114 20017 ft 327 kts 285°
2026-05-03 21:16 -20.18797 148.86694 20016 ft 335 kts 257°
2026-05-03 21:16 -20.19988 148.84546 20019 ft 345 kts 230°
2026-05-03 21:16 -20.22063 148.83195 20020 ft 357 kts 201°
2026-05-03 21:16 -20.24548 148.82988 20019 ft 366 kts 174°
2026-05-03 21:17 -20.26926 148.84003 20017 ft 370 kts 146°
2026-05-03 21:17 -20.28701 148.85991 20039 ft 369 kts 124°
2026-05-03 21:17 -20.30247 148.88161 20022 ft 370 kts 128°
2026-05-03 21:17 -20.31945 148.90228 20021 ft 371 kts 131°
2026-05-03 21:18 -20.33735 148.92191 20019 ft 372 kts 135°
2026-05-03 21:18 -20.35615 148.94090 20020 ft 372 kts 137°
2026-05-03 21:18 -20.37575 148.95956 20022 ft 373 kts 138°
2026-05-03 21:18 -20.39525 148.97731 20022 ft 373 kts 140°
2026-05-03 21:19 -20.41536 148.99504 20024 ft 374 kts 140°
2026-05-03 21:19 -20.43576 149.01259 20033 ft 374 kts 141°
2026-05-03 21:19 -20.45625 149.02991 20028 ft 374 kts 141°
2026-05-03 21:19 -20.47654 149.04683 20027 ft 373 kts 142°
2026-05-03 21:20 -20.49723 149.06393 20027 ft 373 kts 142°
2026-05-03 21:20 -20.51770 149.08073 20031 ft 373 kts 142°
2026-05-03 21:20 -20.53841 149.09764 20029 ft 374 kts 142°
2026-05-03 21:20 -20.55919 149.11455 20033 ft 374 kts 142°
2026-05-03 21:21 -20.57925 149.13231 20013 ft 375 kts 133°
2026-05-03 21:21 -20.59226 149.15602 20033 ft 371 kts 105°
2026-05-03 21:21 -20.59400 149.18301 20034 ft 362 kts 77°
2026-05-03 21:21 -20.58528 149.20750 19548 ft 354 kts 53°
2026-05-03 21:22 -20.56800 149.22478 18834 ft 336 kts 25°
2026-05-03 21:22 -20.54603 149.23106 18046 ft 323 kts 358°
2026-05-03 21:22 -20.52401 149.22719 17242 ft 319 kts 342°
2026-05-03 21:22 -20.50321 149.21948 16414 ft 319 kts 337°
2026-05-03 21:23 -20.48268 149.21048 15479 ft 321 kts 335°
2026-05-03 21:23 -20.46356 149.19849 14523 ft 323 kts 317°
2026-05-03 21:23 -20.45021 149.17943 13612 ft 324 kts 301°
2026-05-03 21:23 -20.43930 149.15881 12687 ft 324 kts 299°
2026-05-03 21:24 -20.42905 149.13773 11829 ft 322 kts 297°
2026-05-03 21:24 -20.41933 149.11649 11107 ft 316 kts 295°
2026-05-03 21:24 -20.41011 149.09557 10402 ft 311 kts 295°
2026-05-03 21:24 -20.40115 149.07465 9676 ft 307 kts 293°
2026-05-03 21:25 -20.39252 149.05405 8963 ft 304 kts 293°
2026-05-03 21:25 -20.38416 149.03374 8249 ft 301 kts 292°
2026-05-03 21:25 -20.37595 149.01352 7656 ft 294 kts 292°
2026-05-03 21:25 -20.36801 148.99377 7159 ft 285 kts 292°
2026-05-03 21:26 -20.36021 148.97456 6661 ft 278 kts 294°
2026-05-03 21:26 -20.34851 148.95869 6125 ft 272 kts 323°
2026-05-03 21:26 -20.33147 148.95082 5447 ft 270 kts 347°
2026-05-03 21:26 -20.31326 148.94644 4890 ft 266 kts 350°
2026-05-03 21:27 -20.29526 148.94240 4458 ft 258 kts 350°
2026-05-03 21:27 -20.27803 148.93857 4094 ft 248 kts 351°
2026-05-03 21:27 -20.26141 148.93491 3758 ft 239 kts 351°
2026-05-03 21:27 -20.24545 148.93140 3442 ft 229 kts 352°
2026-05-03 21:28 -20.23005 148.92802 3137 ft 220 kts 352°
2026-05-03 21:28 -20.21570 148.92410 2956 ft 204 kts 339°
2026-05-03 21:28 -20.20413 148.91534 2984 ft 208 kts 313°
2026-05-03 21:28 -20.19690 148.90166 2992 ft 216 kts 284°
2026-05-03 21:29 -20.19628 148.88542 2892 ft 225 kts 254°
2026-05-03 21:29 -20.20309 148.87039 2780 ft 226 kts 225°
2026-05-03 21:29 -20.21533 148.86069 2669 ft 215 kts 197°
2026-05-03 21:29 -20.22871 148.85786 2539 ft 176 kts 171°
2026-05-03 21:30 -20.23952 148.86003 2460 ft 148 kts 153°
2026-05-03 21:30 -20.24850 148.86514 2427 ft 141 kts 139°
2026-05-03 21:30 -20.25641 148.87158 2250 ft 148 kts 139°
2026-05-03 21:30 -20.26490 148.87836 2060 ft 158 kts 139°
2026-05-03 21:31 -20.27404 148.88565 1850 ft 168 kts 139°
2026-05-03 21:31 -20.28371 148.89337 1628 ft 177 kts 139°
2026-05-03 21:31 -20.29368 148.90135 1395 ft 183 kts 140°
2026-05-03 21:31 -20.30401 148.90962 1153 ft 186 kts 140°
2026-05-03 21:32 -20.31402 148.91765 900 ft 171 kts 140°
2026-05-03 21:32 -20.32295 148.92484 788 ft 146 kts 141°
2026-05-03 21:32 -20.33090 148.93056 584 ft 133 kts 143°
2026-05-03 21:32 -20.33806 148.93602 353 ft 120 kts 139°
2026-05-03 21:33 -20.34502 148.94157 192 ft 131 kts 142°
2026-05-03 21:33 -20.35245 148.94759 39 ft 128 kts 139°
2026-05-03 21:33 -20.35765 148.95178 30 ft 55 kts 143°
2026-05-03 21:33 -20.35969 148.95342 30 ft 21 kts 142°
2026-05-03 21:34 -20.36048 148.95386 30 ft 7 kts 142°
2026-05-03 21:34 -20.36008 148.95381 30 ft 14 kts 317°
2026-05-03 21:34 -20.35906 148.95290 30 ft 22 kts 324°
2026-05-03 21:34 -20.35757 148.95172 30 ft 30 kts 322°
2026-05-03 21:35 -20.35588 148.95035 31 ft 29 kts 322°
2026-05-03 21:35 -20.35453 148.94923 30 ft 17 kts 338°
2026-05-03 21:35 -20.35387 148.94966 32 ft 9 kts 54°
2026-05-03 21:35 -20.35360 148.95020 34 ft 7 kts 74°
2026-05-03 21:36 -20.35333 148.95050 35 ft 0 kts 30°